Regional Weather Roundup
Issued by NWS Green Bay, WI

Home | Current Version | Previous Version | Text Only | Print | Product List | Glossary Off
Versions: 1 2 3 4 5 6 7 8 9 10 11 12 13 14 15 16 17 18 19 20 21 22 23 24 25 26 27 28 29 30 31 32 33 34 35 36 37 38 39 40 41 42 43 44 45 46 47 48 49 50

000
ASUS43 KGRB 231712
RWRGRB

NORTH-CENTRAL AND NORTHEAST WISCONSIN REGIONAL WEATHER ROUNDUP
NATIONAL WEATHER SERVICE GREEN BAY WI
1200 PM CDT MON OCT 23 2017

WIZ005-009-010>012-018-019-231800-
NORTH CENTRAL WISCONSIN

CITY           SKY/WX    TMP DP  RH WIND       PRES   REMARKS
IRONWOOD       MOSUNNY   55  39  54 S9        29.70F
MANITOWISH WTR MOSUNNY   52  41  65 S10       29.72F
ARBOR VITAE    MOSUNNY   53  41  62 S12G17    29.73F
EAGLE RIVER    NOT AVBL
LAND O LAKES   CLOUDY    55  37  50 S8        29.75F
RHINELANDER    PTSUNNY   55  38  52 SW10      29.75F
PHILLIPS       MOSUNNY   52  40  64 SW9       29.74S
ANTIGO         CLOUDY    48  38  69 S10       29.78F
TOMAHAWK       CLOUDY    54  41  62 S3        29.74F
MERRILL        CLOUDY    52  41  66 S6        29.77F
$$

WIZ013-073-231800-
NORTHEAST WISCONSIN

CITY           SKY/WX    TMP DP  RH WIND       PRES   REMARKS
IRON MOUNTAIN  CLOUDY    47  42  83 SE6       29.78F
MARINETTE      CLOUDY    49  47  93 VRB5      29.83S
OCONTO         CLOUDY    47  46  95 CALM      29.82F
$$

WIZ017-030-035>037-045-231800-
CENTRAL WISCONSIN

CITY           SKY/WX    TMP DP  RH WIND       PRES   REMARKS
MEDFORD        PTSUNNY   50  40  67 SW8       29.74F
WAUSAU         MOSUNNY   51  42  71 SE9       29.75F
MOSINEE        PTSUNNY   48  45  87 SE7       29.77F
MARSHFIELD     CLOUDY    53  40  61 SW12      29.75F
WISC RAPIDS    CLOUDY    50  45  83 S7        29.78F
STEVENS POINT  PTSUNNY   50  39  66 S8        29.78F
WAUPACA        CLOUDY    49  48  97 CALM      29.81F
SHAWANO        CLOUDY    47  46  95 CALM      29.82F
CLINTONVILLE   CLOUDY    46  46 100 CALM      29.80F
WAUTOMA        CLOUDY   N/A N/A N/A CALM      29.80
$$

WIZ038-039-048-051-231800-
FOX VALLEY

CITY           SKY/WX    TMP DP  RH WIND       PRES   REMARKS
NWS GREEN BAY  CLOUDY    50  48  93 W3        29.82F
APPLETON       PTSUNNY   52  48  87 CALM      29.82S
OSHKOSH        CLOUDY    53  44  71 CALM      29.81F
FOND DU LAC    CLOUDY    52  44  74 SW3       29.82F
$$

WIZ022-050-052-231800-
EAST CENTRAL WISCONSIN

CITY           SKY/WX    TMP DP  RH WIND       PRES   REMARKS
EPHRAIM        FAIR      50  45  83 CALM      29.80F
WASHINGTON ISL FAIR      50  46  87 CALM      29.80F
STURGEON BAY   CLOUDY    52  44  74 VRB3      29.82F
MANITOWOC      CLOUDY    51  43  74 SE3       29.82F
SHEBOYGAN      LGT RAIN  53  48  83 CALM      29.82F
$$

LMZ563-521-522-541>543-231800-
LAKESHORE

STATION/POSITION TIME  TEMP    WIND        PRES    VSBY  WAVE
                       AIR SEA DIR/SP/G                  HT/PER
                 (UTC) (F)     (DEG/KT/KT) (MB)    (MI)  (FT/S)
SHEBOYGAN LKSHOR 1700   49     340/  5/  5 1009.5F
KEWAUNEE LKSHORE 1648   50      30/  2/  3 1009.0F
NORTHPORT PIER   1640   51     150/  3/  5 1009.5F
N MID LAKE BUOY  1650   53 57  100/  2/  4 1010.1F         0
S GREEN BAY BUOY 1700   51 58  280/  4/  6 1009.9
SISTER BAY LKSHO 1704   55     200/  4/  4   N/A
MENOMINEE LKSHOR 1648   49     310/  2/  4 1009.6F
$$




USA.gov is the U.S. government's official web portal to all federal, state and local government web resources and services.